KA6YAK Weather Reports


time (UTC)temp
F
wind
direction
speed
knots
gust
knots
rain 1hr
in
rain 24hr
in
rain mn
in
humidity
%
barometer
mb
20260505070947 46 49 6.1 15.6 0.00 0.00 0.00 59 1014.1
20260505065946 47 74 9.6 20.9 0.00 0.00 0.00 58 1013.6
20260505065425 47 97 11.3 14.8 0.00 0.00 0.00 59 1013.6
20260505064422 47 101 7.0 16.5 0.00 0.00 0.00 61 1013.6
20260505062941 46 96 8.7 15.6 0.00 0.00 0.00 62 1013.3
20260505061941 45 74 9.6 12.2 0.00 0.00 0.00 65 1013.3
20260505060938 44 84 1.7 2.6 0.00 0.00 0.00 62 1013.6
20260505060416 44 321 1.7 6.1 0.00 0.00 0.00 62 1013.3
20260505054937 45 269 2.6 5.2 0.00 0.00 0.00 60 1013.3
20260505053934 45 163 0.0 6.1 0.00 0.00 0.00 59 1013.3
20260505052933 46 292 1.7 2.6 0.00 0.00 0.00 58 1012.8
20260505051956 47 297 2.6 6.1 0.00 0.00 0.00 58 1012.8
20260505040922 48 335 0.9 6.1 0.00 0.00 0.00 55 1012.8
20260505035920 49 271 4.3 7.0 0.00 0.00 0.00 56 1012.8
20260505034921 48 175 1.7 7.8 0.00 0.00 0.00 55 1012.8
20260505033917 49 276 3.5 5.2 0.00 0.00 0.00 54 1012.5
20260505032916 51 268 2.6 13.0 0.00 0.00 0.00 51 1012.2
20260505031915 53 74 7.8 13.9 0.00 0.00 0.00 51 1011.7
20260505030913 53 102 7.8 16.5 0.00 0.00 0.00 50 1011.7
20260505025911 53 61 8.7 13.0 0.00 0.00 0.00 50 1011.4
20260505024912 53 72 7.0 13.0 0.00 0.00 0.00 50 1011.4
20260505023908 54 35 4.3 7.0 0.00 0.00 0.00 50 1011.4
20260505023340 55 36 3.5 5.2 0.00 0.00 0.00 48 1010.9
20260505021906 56 42 4.3 11.3 0.00 0.00 0.00 47 1010.9
20260505020903 58 59 8.7 13.9 0.00 0.00 0.00 45 1010.6
20260505015902 60 67 8.7 12.2 0.00 0.00 0.00 43 1010.6
20260505014902 65 51 9.6 14.8 0.00 0.00 0.00 39 1010.6
20260505013900 66 338 5.2 9.6 0.00 0.00 0.00 38 1010.2
20260505012858 65 48 8.7 13.9 0.00 0.00 0.00 40 1010.2
20260505012336 62 46 8.7 15.6 0.00 0.00 0.00 42 1010.6
20260505010855 63 67 13.0 18.2 0.00 0.00 0.00 41 1010.2
20260505005853 65 69 7.8 20.9 0.00 0.00 0.00 39 1010.6
20260505004853 68 31 8.7 18.2 0.00 0.00 0.00 38 1010.2
20260505003851 70 16 10.4 13.9 0.00 0.00 0.00 37 1010.2
20260505003019 68 12 9.6 15.6 0.00 0.00 0.00 38 1010.6
20260505002520 67 12 8.7 13.0 0.00 0.00 0.00 38 1010.2
20260505001015 65 312 9.6 18.2 0.00 0.00 0.00 41 1009.8
20260505000012 66 340 9.6 13.0 0.00 0.00 0.00 42 1010.2
20260504235009 66 13 9.6 16.5 0.00 0.00 0.00 40 1009.8
20260504234005 67 4 10.4 13.9 0.00 0.00 0.00 40 1009.8
20260504233001 67 341 10.4 16.5 0.00 0.00 0.00 41 1009.8
20260504232001 67 335 11.3 16.5 0.00 0.00 0.00 41 1009.8
20260504231003 67 10 12.2 20.0 0.00 0.00 0.00 40 1009.5
20260504225954 67 342 13.0 16.5 0.00 0.00 0.00 40 1009.5
20260504225452 69 2 7.8 18.2 0.00 0.00 0.00 41 1009.8
20260504223945 70 351 9.6 14.8 0.00 0.00 0.00 38 1009.8
20260504222943 71 336 11.3 14.8 0.00 0.00 0.00 39 1009.8
20260504221941 71 347 10.4 15.6 0.00 0.00 0.00 37 1009.8
20260504220937 71 348 9.6 15.6 0.00 0.00 0.00 39 1009.8
20260504220436 71 322 5.2 13.9 0.00 0.00 0.00 40 1009.8
20260504214933 70 317 8.7 16.5 0.00 0.00 0.00 38 1009.8
20260504213927 71 357 11.3 15.6 0.00 0.00 0.00 40 1010.2
20260504212924 70 343 11.3 15.6 0.00 0.00 0.00 40 1010.2
20260504211923 71 305 10.4 14.8 0.00 0.00 0.00 39 1010.2
20260504210917 70 327 11.3 13.9 0.00 0.00 0.00 39 1010.2
20260504210421 71 13 7.8 13.0 0.00 0.00 0.00 37 1010.2
20260504204914 71 335 7.8 15.6 0.00 0.00 0.00 39 1010.2
20260504203910 71 345 7.8 13.0 0.00 0.00 0.00 40 1010.2
20260504202905 71 3 8.7 13.9 0.00 0.00 0.00 39 1010.6
20260504201907 70 316 8.7 13.0 0.00 0.00 0.00 40 1010.2
20260504200859 69 352 7.8 14.8 0.00 0.00 0.00 41 1010.6
20260504195858 69 13 7.0 13.0 0.00 0.00 0.00 42 1010.9
20260504194855 69 310 9.6 18.2 0.00 0.00 0.00 42 1010.9
20260504193851 68 342 10.4 13.9 0.00 0.00 0.00 40 1010.9
20260504192847 69 337 3.5 12.2 0.00 0.00 0.00 41 1010.9
20260504191847 69 340 4.3 13.9 0.00 0.00 0.00 40 1010.9
20260504190842 67 319 8.7 15.6 0.00 0.00 0.00 40 1011.4
20260504190339 67 12 7.8 14.8 0.00 0.00 0.00 43 1011.4
20260504184837 65 354 6.1 14.8 0.00 0.00 0.00 43 1010.9
20260504183838 65 5 8.7 13.9 0.00 0.00 0.00 45 1011.7
20260504183834 66 345 8.7 14.8 0.00 0.00 0.00 42 1011.4
20260504181828 65 340 8.7 15.6 0.00 0.00 0.00 44 1011.4
20260504180825 64 305 10.4 13.9 0.00 0.00 0.00 44 1011.7
20260504175821 63 295 10.4 14.8 0.00 0.00 0.00 44 1011.7
20260504174820 63 314 9.6 13.0 0.00 0.00 0.00 46 1011.7
20260504173815 63 345 7.8 16.5 0.00 0.00 0.00 47 1011.7
20260504172813 63 297 11.3 13.0 0.00 0.00 0.00 46 1012.2
20260504171811 63 311 8.7 11.3 0.00 0.00 0.00 47 1012.2
20260504170805 63 330 4.3 7.0 0.00 0.00 0.00 47 1012.2
20260504160245 61 341 1.7 6.1 0.00 0.00 0.00 54 1012.5
20260504150729 55 209 3.5 5.2 0.00 0.00 0.00 60 1012.2
20260504150229 54 203 0.9 3.5 0.00 0.00 0.00 61 1012.5
20260504140719 53 144 0.0 5.2 0.00 0.00 0.00 66 1012.5
20260504130710 45 151 0.9 5.2 0.00 0.00 0.00 72 1011.4
20260504120138 42 3 5.2 6.1 0.00 0.00 0.00 71 1010.9
20260504110653 44 34 10.4 13.9 0.00 0.00 0.00 75 1010.6
20260504110133 44 36 3.5 3.5 0.00 0.00 0.00 71 1010.6
20260504081630 47 94 4.3 8.7 0.00 0.00 0.00 69 1010.9
20260504080627 47 89 5.2 9.6 0.00 0.00 0.00 67 1010.9
20260504080114 48 101 7.8 9.6 0.00 0.00 0.00 67 1010.6